TimeEDT,TemperatureF,Dew PointF,Humidity,Sea Level PressureIn,VisibilityMPH,Wind Direction,Wind SpeedMPH,Gust SpeedMPH,PrecipitationIn,Events,Conditions,WindDirDegrees,DateUTC
12:53 AM,52.0,48.9,89,29.93,10.0,Calm,Calm,-,N/A,,Unknown,0,2012-10-17 04:53:00
1:53 AM,51.1,48.0,89,29.94,9.0,Calm,Calm,-,N/A,,Clear,0,2012-10-17 05:53:00
2:53 AM,51.1,48.0,89,29.94,8.0,Calm,Calm,-,N/A,,Clear,0,2012-10-17 06:53:00
3:53 AM,50.0,48.0,93,29.92,8.0,Calm,Calm,-,N/A,,Clear,0,2012-10-17 07:53:00
4:53 AM,50.0,48.0,93,29.93,8.0,Calm,Calm,-,N/A,,Clear,0,2012-10-17 08:53:00
5:53 AM,51.1,48.9,92,29.94,9.0,Calm,Calm,-,N/A,,Clear,0,2012-10-17 09:53:00
6:53 AM,52.0,48.9,89,29.97,8.0,Calm,Calm,-,N/A,,Clear,0,2012-10-17 10:53:00
7:53 AM,53.1,48.9,86,29.97,9.0,NNE,3.5,-,N/A,,Clear,30,2012-10-17 11:53:00
8:53 AM,54.0,51.1,90,30.00,10.0,Calm,Calm,-,N/A,,Clear,0,2012-10-17 12:53:00
9:53 AM,55.9,52.0,87,30.02,6.0,Calm,Calm,-,N/A,,Clear,0,2012-10-17 13:53:00
10:53 AM,59.0,53.1,81,30.02,9.0,Calm,Calm,-,N/A,,Clear,0,2012-10-17 14:53:00
11:53 AM,64.0,52.0,65,30.01,10.0,Calm,Calm,-,N/A,,Clear,0,2012-10-17 15:53:00
12:53 PM,68.0,48.0,49,29.99,10.0,Calm,Calm,-,N/A,,Clear,0,2012-10-17 16:53:00
1:53 PM,69.1,46.9,45,29.96,10.0,Calm,Calm,-,N/A,,Clear,0,2012-10-17 17:53:00
2:53 PM,72.0,43.0,35,29.93,10.0,SSE,4.6,-,N/A,,Clear,150,2012-10-17 18:53:00
3:53 PM,72.0,44.1,37,29.92,10.0,ESE,5.8,-,N/A,,Clear,110,2012-10-17 19:53:00
4:53 PM,72.0,45.0,38,29.91,10.0,SE,5.8,-,N/A,,Clear,140,2012-10-17 20:53:00
5:53 PM,70.0,50.0,49,29.91,10.0,ESE,4.6,-,N/A,,Clear,120,2012-10-17 21:53:00
6:53 PM,66.0,53.1,63,29.91,10.0,Calm,Calm,-,N/A,,Clear,0,2012-10-17 22:53:00
7:53 PM,59.0,53.1,81,29.94,10.0,Calm,Calm,-,N/A,,Clear,0,2012-10-17 23:53:00
8:53 PM,59.0,53.1,81,29.94,10.0,Calm,Calm,-,N/A,,Clear,0,2012-10-18 00:53:00
9:53 PM,55.9,53.1,90,29.95,10.0,Calm,Calm,-,N/A,,Clear,0,2012-10-18 01:53:00
10:53 PM,55.9,53.1,90,29.95,10.0,Calm,Calm,-,N/A,,Partly Cloudy,0,2012-10-18 02:53:00
11:53 PM,55.0,53.1,93,29.93,9.0,Calm,Calm,-,N/A,,Clear,0,2012-10-18 03:53:00